Date String (YYYY-MM-DD hh:mm:ss) UTC,Instrument flags,Ambient pressure (hPa),Sample flow (lpm),Bypass flow (lpm),Sample temperature (°C),Ambient temperature (°C),ASC tube jacket temperature (°C),LED temperature (°C),Box temperature (°C),Sample RH (%),Span deviation,Mass concentration (μg/m³),Mass concentration (μg/m³),Mass concentration (μg/m³)
DateTimeUTC,F1_M11,P_M11,Q1_M11,Q2_M11,T1_M11,T2_M11,T3_M11,T4_M11,T5_M11,U1_M11,ZSPAN_M11,X0_M11,X2_M11,X1_M11
2023-01-10 22:00:00,,0814.6,5.00,0.00,22.5,20.9,00.0,31.4,24.2,14.3,0000.0,0015.88,0001.00,0000.26
2023-01-10 22:01:00,,0814.8,5.02,0.00,22.5,20.9,00.0,31.4,24.2,14.5,0000.0,0007.71,0000.57,0000.24
2023-01-10 22:02:00,,0814.9,5.00,0.00,22.5,20.9,00.0,31.4,24.2,14.6,0000.0,0007.85,0000.58,0000.24
2023-01-10 22:03:00,,0814.8,4.99,0.00,22.5,20.8,00.0,31.4,24.1,14.6,0000.0,0007.87,0000.58,0000.24
2023-01-10 22:04:00,,0814.9,5.00,0.00,22.4,20.8,00.0,31.4,24.1,14.8,0000.0,0008.12,0000.59,0000.25
2023-01-10 22:05:00,,0815.0,5.01,0.00,22.4,20.8,00.0,31.4,24.1,14.9,0000.0,0008.16,0000.63,0000.25
2023-01-10 22:06:00,,0815.1,5.00,0.00,22.4,20.8,00.0,31.3,24.1,15.1,0000.0,0008.23,0000.61,0000.25
2023-01-10 22:07:00,,0815.0,5.01,0.00,22.4,20.8,00.0,31.3,24.0,15.1,0000.0,0007.94,0000.57,0000.25
2023-01-10 22:08:00,,0815.0,5.01,0.00,22.4,20.8,00.0,31.3,24.0,15.1,0000.0,0006.86,0000.56,0000.25
2023-01-10 22:09:00,,0815.1,5.01,0.00,22.4,20.8,00.0,31.3,24.0,14.6,0000.0,0006.79,0000.55,0000.25
2023-01-10 22:10:00,,0814.8,5.00,0.00,22.4,20.8,00.0,31.3,24.0,15.0,0000.0,0006.39,0000.53,0000.25
2023-01-10 22:11:00,,0815.1,5.02,0.00,22.3,20.8,00.0,31.3,24.0,14.9,0000.0,0002.58,0000.46,0000.25
2023-01-10 22:12:00,,0815.0,4.99,0.00,22.3,20.8,00.0,31.3,24.0,15.0,0000.0,0002.28,0000.46,0000.24
2023-01-10 22:13:00,,0814.9,5.02,0.00,22.3,20.7,00.0,31.3,24.0,14.9,0000.0,0002.08,0000.45,0000.24
2023-01-10 22:14:00,,0815.0,5.00,0.00,22.3,20.7,00.0,31.3,24.0,15.0,0000.0,0002.00,0000.45,0000.24
2023-01-10 22:15:00,,0815.1,5.00,0.00,22.3,20.7,00.0,31.2,24.0,15.1,0000.0,0001.56,0000.42,0000.24
2023-01-10 22:16:00,,0814.9,4.99,0.00,22.3,20.7,00.0,31.2,23.9,15.1,0000.0,0001.44,0000.42,0000.24
2023-01-10 22:17:00,,0814.8,5.00,0.00,22.3,20.7,00.0,31.2,23.9,14.9,0000.0,0001.19,0000.42,0000.24
2023-01-10 22:18:00,,0814.7,4.99,0.00,22.3,20.7,00.0,31.2,23.9,14.9,0000.0,0001.90,0000.43,0000.24
2023-01-10 22:19:00,,0815.0,5.00,0.00,22.2,20.6,00.0,31.2,23.9,14.8,0000.0,0002.93,0000.43,0000.24
2023-01-10 22:20:00,,0815.0,5.00,0.00,22.2,20.7,00.0,31.2,23.9,15.2,0000.0,0003.07,0000.44,0000.24
2023-01-10 22:21:00,,0814.7,5.00,0.00,22.2,20.7,00.0,31.2,23.9,15.2,0000.0,0003.36,0000.47,0000.25
2023-01-10 22:22:00,,0814.8,5.02,0.00,22.2,20.6,00.0,31.2,23.9,14.7,0000.0,0003.53,0000.46,0000.26
2023-01-10 22:23:00,,0814.8,5.01,0.00,22.2,20.6,00.0,31.1,23.8,14.6,0000.0,0003.56,0000.47,0000.26
2023-01-10 22:24:00,,0814.9,5.00,0.00,22.2,20.6,00.0,31.1,23.8,14.6,0000.0,0003.52,0000.46,0000.25
2023-01-10 22:25:00,,0814.9,5.00,0.00,22.2,20.6,00.0,31.1,23.8,14.9,0000.0,0003.51,0000.46,0000.25
2023-01-10 22:26:00,,0814.8,5.00,0.00,22.2,20.6,00.0,31.1,23.8,14.7,0000.0,0003.59,0000.46,0000.26
2023-01-10 22:27:00,,0814.8,5.00,0.00,22.1,20.6,00.0,31.1,23.8,14.8,0000.0,0003.79,0000.44,0000.26
2023-01-10 22:28:00,,0814.9,5.01,0.00,22.1,20.6,00.0,31.1,23.8,14.5,0000.0,0003.71,0000.40,0000.26
2023-01-10 22:29:00,,0814.7,4.99,0.00,22.2,21.0,00.0,31.0,24.0,14.7,0000.0,0002.76,0000.41,0000.26
2023-01-10 22:30:00,,0814.7,5.05,0.00,22.3,22.0,00.0,31.0,24.3,14.7,0000.0,0003.07,0000.42,0000.27
2023-01-10 22:31:00,,0814.7,5.01,0.00,22.4,22.7,00.0,31.0,24.5,14.6,0000.0,0003.17,0000.43,0000.27
2023-01-10 22:32:00,,0814.6,4.99,0.00,22.5,22.6,00.0,31.1,24.6,14.5,0000.0,0003.68,0000.48,0000.28
2023-01-10 22:33:00,,0814.5,5.01,0.00,22.6,22.3,00.0,31.2,24.5,14.4,0000.0,0003.53,0000.51,0000.28
2023-01-10 22:34:00,,0814.7,5.00,0.00,22.6,21.9,00.0,31.2,24.4,14.3,0000.0,0003.85,0000.50,0000.29
2023-01-10 22:35:00,,0814.7,5.00,0.00,22.6,21.7,00.0,31.2,24.4,14.7,0000.0,0004.58,0000.50,0000.29
2023-01-10 22:36:00,,0814.8,4.99,0.00,22.5,21.5,00.0,31.3,24.3,14.7,0000.0,0004.77,0000.51,0000.29
2023-01-10 22:37:00,,0814.8,5.00,0.00,22.5,21.3,00.0,31.3,24.2,15.0,0000.0,0004.68,0000.51,0000.29
2023-01-10 22:38:00,,0814.4,4.98,0.00,22.5,21.2,00.0,31.3,24.2,15.2,0000.0,0004.50,0000.53,0000.30
2023-01-10 22:39:00,,0814.4,5.03,0.00,22.5,21.1,00.0,31.3,24.2,15.0,0000.0,0012.22,0000.61,0000.31
2023-01-10 22:40:00,,0814.2,5.00,0.00,22.5,20.9,00.0,31.3,24.1,14.8,0000.0,0015.40,0000.66,0000.31
2023-01-10 22:41:00,,0814.6,5.00,0.00,22.4,20.8,00.0,31.3,24.1,14.6,0000.0,0099.47,0002.21,0000.46
2023-01-10 22:42:00,,0814.6,4.99,0.00,22.4,20.7,00.0,31.3,24.0,14.8,0000.0,0099.84,0002.20,0000.46
2023-01-10 22:43:00,,0814.7,5.00,0.00,22.4,20.7,00.0,31.3,24.0,15.0,0000.0,0099.45,0002.12,0000.44
2023-01-10 22:44:00,,0814.6,5.00,0.00,22.3,20.6,00.0,31.2,24.0,14.9,0000.0,0099.81,0002.12,0000.43
2023-01-10 22:45:00,,0814.7,4.99,0.00,22.3,20.6,00.0,31.2,23.9,14.8,0000.0,0102.78,0002.20,0000.43
2023-01-10 22:46:00,,0814.8,4.99,0.00,22.3,20.5,00.0,31.2,23.9,15.1,0000.0,0102.50,0002.21,0000.43
2023-01-10 22:47:00,,0814.8,5.02,0.00,22.2,20.5,00.0,31.2,23.9,14.9,0000.0,0102.39,0002.22,0000.43
2023-01-10 22:48:00,,0815.0,5.00,0.00,22.2,20.5,00.0,31.2,23.8,15.2,0000.0,0102.52,0002.24,0000.43
2023-01-10 22:49:00,,0815.1,5.00,0.00,22.2,20.5,00.0,31.2,23.8,15.5,0000.0,0102.68,0002.22,0000.42
2023-01-10 22:50:00,,0815.0,5.01,0.00,22.2,20.5,00.0,31.1,23.8,15.4,0000.0,0097.10,0002.16,0000.41
2023-01-10 22:51:00,,0814.9,4.99,0.00,22.1,20.5,00.0,31.1,23.8,15.1,0000.0,0094.85,0002.13,0000.40
2023-01-10 22:52:00,,0815.1,5.01,0.00,22.1,20.7,00.0,31.1,23.8,15.1,0000.0,0015.36,0000.66,0000.27
2023-01-10 22:53:00,,0815.1,5.01,0.00,22.2,21.7,00.0,31.1,24.1,15.6,0000.0,0007.95,0000.53,0000.25
2023-01-10 22:54:00,,0815.0,4.99,0.00,22.4,22.8,00.0,31.1,24.5,15.2,0000.0,0007.96,0000.53,0000.25
2023-01-10 22:55:00,,0814.7,5.00,0.00,22.5,22.9,00.0,31.2,24.6,14.5,0000.0,0007.82,0000.52,0000.25
2023-01-10 22:56:00,,0814.9,4.99,0.00,22.6,22.6,00.0,31.2,24.6,14.3,0000.0,0002.42,0000.42,0000.24
2023-01-10 22:57:00,,0814.8,5.01,0.00,22.6,22.2,00.0,31.3,24.5,14.4,0000.0,0002.14,0000.40,0000.23
2023-01-10 22:58:00,,0814.7,5.00,0.00,22.6,21.9,00.0,31.3,24.4,14.5,0000.0,0002.06,0000.38,0000.23
2023-01-10 22:59:00,,0814.7,5.00,0.00,22.6,21.6,00.0,31.3,24.4,14.4,0000.0,0001.88,0000.37,0000.22
